NIGCOMSAT 1R

Last updated on Mon Oct 20 2025 00:02:47 GMT+0000 (Coordinated Universal Time)

1 38014U 11077A 25292.20439693 .00000142 00000+0 00000+0 0 9993 2 38014 0.0727 67.7663 0001712 212.1130 224.1417 1.00273399 50549
UTC large
Height (km)
Speed (km/s)
/
Latitude / Longitude
Inclination (degrees)
Orbital Period (minutes)
Azimuth
Elevation
Range (km)
Doppler Factor

Next 0 passes for location: London (51.5072 / 0.1276)

Sorry there are no passes over London.